Location: Acheville
(50.3840°N, 2.8827°E)
Time: 14:47:17
(UTC+00:00)

Cosmos 1844 - Pass Details

Date: 24 October 2021
Orbit: 822 x 868 km, 70.9° (Epoch: 28 November)

Event Time Altitude Azimuth Distance (km) Brightness Sun altitude
Rises 18:11:16 0° 331° (NNW) 3,465 7.3 -15.4°
Reaches altitude 10° 18:13:47 10° 334° (NNW) 2,522 6.5 -15.8°
Maximum altitude 18:19:34 67° 57° (ENE) 936 3.7 -16.7°
Enters shadow 18:24:10 16° 138° (SE) 2,081 5.3 -17.4°
